Weather History for KPRG - September, 2012

Change the Weather History Date:

Sunday, September 2, 2012

  Actual Average (KHUF) Record (KHUF)
Temperature  
Mean Temperature 74 °F 71 °F  
Max Temperature 78 °F 82 °F 98 °F (2011)
Min Temperature 71 °F 59 °F 45 °F (1987)
Degree Days  
Heating Degree Days 0 0  
Month to date heating degree days 0  
Since 1 July heating degree days 5  
Cooling Degree Days 10 6  
Month to date cooling degree days 12  
Year to date cooling degree days 891  
Growing Degree Days 24 (Base 50)    
Moisture  
Dew Point 72 °F    
Average Humidity 94    
Maximum Humidity 97    
Minimum Humidity 87    
Precipitation  
Precipitation 0.20 in 0.13 in 2.40 in (1989)
Month to date precipitation 0.28  
Year to date precipitation 31.56  
Sea Level Pressure  
Sea Level Pressure 29.81 in    
Wind  
Wind Speed 7 mph (East)    
Max Wind Speed 10 mph    
Max Gust Speed 17 mph    
Visibility 8 miles    
Events Rain    
T = Trace of Precipitation, MM = Missing Value Source: NWS Daily Summary

Daily Weather History Graph

Daily Weather History Graph

Search for Another Location

Airport or City:

Trip Planner

Search our weather history database for the weather conditions in past years. The results will help you decide how hot, cold, wet, or windy it might be!

Date:

Astronomy

Sep. 02, 2012 Rise Set
Actual Time 6:20 AM CDT 7:19 PM CDT
Civil Twilight 5:52 AM CDT 7:46 PM CDT
Nautical Twilight 5:19 AM CDT 8:19 PM CDT
Astronomical Twilight 4:45 AM CDT 8:53 PM CDT
Moon 8:07 PM CDT (9/2) 8:27 AM CDT (9/2)
Length of Visible Light 13h 54m
Length of Day
12h 59m
Waning Gibbous, 95% of the Moon is Illuminated
Sep 2
Waning Gibbous
Sep 8
Last Quarter
Sep 15
New
Sep 22
First Quarter
Sep 29
Full

Hourly Weather History & Observations

Time (CDT) Temp. Dew Point Humidity Pressure Visibility Wind Dir Wind Speed Gust Speed Precip Events Conditions
12:15 AM 75.0 °F 72.0 °F 90% 29.88 in 10.0 mi South 8.1 mph 16.1 mph 0.01 in   Overcast
12:35 AM 73.8 °F 71.1 °F 91% 29.88 in 10.0 mi SSE 9.2 mph - 0.01 in   Overcast
12:55 AM 73.2 °F 70.7 °F 92% 29.88 in 10.0 mi SSE 9.2 mph - 0.01 in   Mostly Cloudy
1:15 AM 72.9 °F 70.3 °F 92% 29.88 in 10.0 mi SSE 6.9 mph - N/A   Mostly Cloudy
1:35 AM 72.7 °F 70.7 °F 93% 29.87 in 7.0 mi ESE 5.8 mph - N/A Rain Heavy Rain
1:55 AM 72.5 °F 70.3 °F 93% 29.87 in 10.0 mi ESE 5.8 mph - N/A   Overcast
2:15 AM 72.1 °F 70.3 °F 94% 29.86 in 10.0 mi East 4.6 mph - N/A   Mostly Cloudy
2:35 AM 72.1 °F 70.3 °F 94% 29.85 in 10.0 mi East 4.6 mph - N/A Rain Rain
2:55 AM 71.6 °F 69.8 °F 94% 29.85 in 10.0 mi ESE 4.6 mph - N/A   Drizzle
3:15 AM 72.0 °F 70.3 °F 95% 29.84 in 10.0 mi ESE 6.9 mph - 0.01 in Rain Rain
3:35 AM 71.8 °F 70.5 °F 96% 29.83 in 10.0 mi East 5.8 mph - 0.05 in Rain Light Rain
3:55 AM 71.6 °F 70.3 °F 96% 29.83 in 10.0 mi East 6.9 mph - 0.05 in   Drizzle
4:15 AM 71.6 °F 70.3 °F 96% 29.82 in 10.0 mi East 6.9 mph - 0.01 in Rain Rain
4:35 AM 71.6 °F 70.3 °F 96% 29.82 in 10.0 mi East 5.8 mph - 0.01 in   Light Drizzle
4:55 AM 72.0 °F 70.7 °F 96% 29.82 in 10.0 mi East 6.9 mph - 0.01 in   Overcast
5:15 AM 72.0 °F 70.7 °F 96% 29.81 in 10.0 mi ENE 8.1 mph - N/A Rain Rain
5:35 AM 72.0 °F 70.7 °F 96% 29.81 in 10.0 mi East 4.6 mph - 0.01 in Rain Light Rain
5:55 AM 72.0 °F 70.7 °F 96% 29.81 in 10.0 mi East 6.9 mph - 0.01 in   Drizzle
6:15 AM 72.0 °F 70.9 °F 96% 29.81 in 10.0 mi ENE 6.9 mph - N/A   Light Drizzle
6:35 AM 72.1 °F 71.1 °F 96% 29.80 in 10.0 mi East 5.8 mph - 0.01 in   Drizzle
6:55 AM 72.3 °F 71.4 °F 97% 29.80 in 5.0 mi ENE 9.2 mph - 0.02 in   Heavy Drizzle
7:15 AM 72.5 °F 71.6 °F 97% 29.80 in 4.0 mi ENE 10.4 mph - 0.02 in Rain Rain
7:35 AM 72.5 °F 71.6 °F 97% 29.79 in 5.0 mi East 10.4 mph 17.3 mph 0.02 in   Drizzle
7:55 AM 72.3 °F 71.4 °F 97% 29.80 in 2.5 mi East 6.9 mph 16.1 mph 0.03 in   Drizzle
8:15 AM 72.5 °F 71.6 °F 97% 29.79 in 3.0 mi East 6.9 mph - 0.01 in Rain Light Rain
8:35 AM 72.5 °F 71.6 °F 97% 29.79 in 3.0 mi East 4.6 mph - 0.02 in   Drizzle
8:55 AM 72.5 °F 71.6 °F 97% 29.79 in 2.5 mi East 9.2 mph 17.3 mph 0.03 in   Drizzle
9:15 AM 72.7 °F 71.8 °F 97% 29.79 in 1.8 mi East 8.1 mph - 0.01 in Rain Rain
9:35 AM 72.7 °F 71.8 °F 97% 29.79 in 2.0 mi ESE 8.1 mph - 0.01 in   Drizzle
9:55 AM 73.2 °F 72.3 °F 97% 29.79 in 1.5 mi ESE 6.9 mph - 0.02 in   Drizzle
10:15 AM 73.0 °F 72.1 °F 97% 29.80 in 1.8 mi ESE 10.4 mph - N/A   Drizzle
10:35 AM 73.0 °F 72.1 °F 97% 29.80 in 1.8 mi ESE 6.9 mph - N/A   Drizzle
10:55 AM 73.4 °F 72.5 °F 97% 29.80 in 1.8 mi ESE 10.4 mph - 0.01 in   Drizzle
11:15 AM 73.4 °F 72.5 °F 97% 29.80 in 2.5 mi East 6.9 mph - N/A   Drizzle
11:35 AM 73.9 °F 72.9 °F 96% 29.79 in 10.0 mi ESE 8.1 mph - N/A   Light Drizzle
11:55 AM 74.3 °F 73.0 °F 96% 29.79 in 7.0 mi ESE 8.1 mph - N/A   Overcast
12:15 PM 74.1 °F 72.9 °F 96% 29.79 in 10.0 mi ESE 8.1 mph - N/A Rain Light Rain
12:35 PM 74.5 °F 73.4 °F 96% 29.79 in 5.0 mi ESE 6.9 mph - N/A   Overcast
12:55 PM 74.3 °F 73.0 °F 96% 29.79 in 5.0 mi ESE 8.1 mph - N/A   Heavy Drizzle
1:15 PM 74.7 °F 73.6 °F 96% 29.79 in 5.0 mi ESE 8.1 mph - N/A   Light Drizzle
1:35 PM 74.8 °F 73.6 °F 96% 29.79 in 10.0 mi ESE 9.2 mph - 0.01 in Rain Light Rain
1:55 PM 74.5 °F 73.4 °F 96% 29.79 in 10.0 mi ESE 8.1 mph - 0.01 in   Overcast
2:15 PM 74.7 °F 73.0 °F 95% 29.78 in 10.0 mi ESE 8.1 mph - N/A   Overcast
2:35 PM 76.1 °F 74.1 °F 94% 29.77 in 10.0 mi East 8.1 mph - N/A   Overcast
2:55 PM 76.8 °F 73.6 °F 90% 29.77 in 10.0 mi East 9.2 mph - N/A   Overcast
3:15 PM 77.0 °F 73.4 °F 89% 29.77 in 10.0 mi East 5.8 mph - N/A   Overcast
3:35 PM 76.6 °F 73.4 °F 90% 29.77 in 10.0 mi East 6.9 mph - N/A   Overcast
3:55 PM 76.6 °F 73.8 °F 91% 29.77 in 10.0 mi East 10.4 mph - N/A Rain Rain
4:15 PM 78.1 °F 73.9 °F 87% 29.77 in 10.0 mi East 9.2 mph - N/A   Overcast
4:35 PM 77.5 °F 73.6 °F 88% 29.78 in 10.0 mi ENE 8.1 mph - N/A   Overcast
4:55 PM 77.4 °F 73.4 °F 88% 29.78 in 10.0 mi East 9.2 mph - N/A   Overcast
5:15 PM 77.2 °F 73.4 °F 88% 29.78 in 10.0 mi East 6.9 mph - N/A   Overcast
5:35 PM 77.2 °F 73.4 °F 88% 29.78 in 10.0 mi East 6.9 mph - N/A   Overcast
5:55 PM 76.8 °F 73.4 °F 89% 29.79 in 10.0 mi ENE 4.6 mph - N/A   Overcast
6:15 PM 77.2 °F 73.4 °F 88% 29.79 in 10.0 mi East 3.5 mph - N/A   Overcast
6:35 PM 75.9 °F 72.9 °F 90% 29.79 in 10.0 mi East 8.1 mph - N/A   Overcast
6:55 PM 74.8 °F 73.4 °F 95% 29.79 in 10.0 mi ENE 5.8 mph - N/A   Overcast
7:15 PM 74.5 °F 73.0 °F 95% 29.79 in 10.0 mi ENE 6.9 mph - N/A   Scattered Clouds
7:35 PM 74.3 °F 72.9 °F 95% 29.80 in 10.0 mi ENE 4.6 mph - N/A   Mostly Cloudy
7:55 PM 74.3 °F 72.9 °F 95% 29.81 in 10.0 mi ENE 5.8 mph - N/A   Overcast
8:15 PM 74.3 °F 72.9 °F 95% 29.81 in 10.0 mi ENE 3.5 mph - N/A   Overcast
8:35 PM 74.3 °F 72.7 °F 95% 29.82 in 10.0 mi NE 4.6 mph - N/A   Overcast
8:55 PM 73.9 °F 72.5 °F 95% 29.82 in 10.0 mi NE 5.8 mph - N/A   Overcast
9:15 PM 73.8 °F 72.5 °F 96% 29.82 in 10.0 mi NE 8.1 mph - N/A   Overcast
9:35 PM 73.8 °F 72.5 °F 96% 29.83 in 10.0 mi NE 5.8 mph - N/A   Overcast
9:55 PM 73.6 °F 72.5 °F 96% 29.83 in 10.0 mi NE 6.9 mph - N/A   Overcast
10:15 PM 73.6 °F 72.5 °F 96% 29.83 in 10.0 mi NE 5.8 mph - N/A   Overcast
10:35 PM 73.4 °F 72.0 °F 95% 29.83 in 10.0 mi NE 5.8 mph - N/A   Overcast
10:55 PM 73.4 °F 72.1 °F 96% 29.83 in 10.0 mi NE 5.8 mph - N/A   Overcast
11:15 PM 73.4 °F 72.1 °F 96% 29.84 in 10.0 mi ENE 6.9 mph - N/A   Overcast
11:35 PM 73.4 °F 72.0 °F 95% 29.84 in 10.0 mi NE 6.9 mph - N/A   Overcast
11:55 PM 73.0 °F 72.0 °F 96% 29.84 in 7.0 mi NE 5.8 mph - N/A   Overcast